STARLINK-11186, 60070

Orbit data source: Space-Track

STARLINK-11186, 60070 is a payload satellite owned by SpaceX/Seattle (US) in LEO that was launched on Wed, 19 Jun 2024 UTC via an FALCON 9 launch vehicle from the Air Force Western Test Range (AFWTR). Payload-class satellites include a variety of spacecraft equipped with specific instruments for various scientific and technological missions. These include communications satellites like Starlink; space stations such as the ISS; scientific satellites like the Hubble; Earth observation satellites from companies like Planet Labs, Umbra, and HawkEye 360; GPS; miniature CubeSats for education and research; and military/defense satellites.

Loading next visibility...
Identifier
60070, 2024-113M
Orbit
LEO
Country
Flag of USUS
Related business
Manufacturer
SpaceX/Seattle
Mission
Operational Commercial Communications
Bus & Motor
STARLINK V2MD, Unknown motor
Mass
960 kg wet, ~910 kg dry
Launch date (UTC)
2024-06-19 (2 years ago)
Launch vehicle
FALCON 9
Launch site
Air Force Western Test Range (AFWTR)
Object type
Payload
Rocket body
Debris
Shape & HBR
Box + 2 Pan, 18.1 m
Radar Cross Section
36.964 m², Large (>1 m²)

Expand to show TLE details & history
Last TLE update: 12 hours ago

TLE from 12 hours ago
0 STARLINK-11186
1 60070U 24113M   26171.36135705 -.00001095  00000-0 -41809-5 0  9995
2 60070  53.1603  45.3157 0001037  86.6508 273.4629 15.69711743116096
Epoch: 2026-06-20T08:40Z
TLE epoch observation values (Epoch: 2026-06-20T08:40:21.249Z)
Latitude
0.00003°
Longitude
6.65011°
Altitude
360.595 km
Speed
7.694 km/s
True Right ascension
03h 01m 15s
True Declination
0° 00' 00"
Sunlit
Object was in daylight at epoch
Visualization orbit readout
Latitude
Unknown
Longitude
Unknown
Altitude
Unknown
Speed
Unknown
Apparent Right ascension
Unknown
Apparent Declination
Unknown
Sunlit
N/A
Visualization observer readout
Local Sidereal Time
07:21:24
Azimuth
Unknown
Elevation
Unknown
Doppler factor
Unknown
Orbital elements
Apogee altitude
360.681 km
Perigee altitude
359.284 km
Semi-major axis
6,738.119 km
Eccentricity
0.0001
Inclination
53.1603°
RAAN
45.3157°
Arg. of periapsis
86.6508°
True anomaly
273.45104°
Mean anomaly
273.4629°
Eccentric anomaly
273.45697°
Mean motion
3.92406 °/min
Orbital period
91.74 mins
BSTAR
-0.0000041809
Loading maneuver chart data...
Computing Atmospheric mass density...

Documentation

Showing up to 5 results
|